EW6434 Weather Reports


time (UTC)temp
C
wind
direction
speed
KPH
gust
KPH
rain 1hr
cm
rain 24hr
cm
rain mn
cm
humidity
%
barometer
mb
20260507100013 -5 286 0.0 0.0 0.00 0.76 0.00 73 1023.5
20260507094505 -5 276 0.0 0.0 0.00 0.76 0.00 73 1023.4
20260507093002 -5 259 0.0 1.6 0.00 0.76 0.00 72 1023.4
20260507091606 -5 27 0.0 1.6 0.00 0.76 0.00 73 1023.2
20260507090113 -4 235 0.0 1.6 0.00 0.76 0.00 72 1022.9
20260507084559 -5 255 0.0 1.6 0.00 0.76 0.00 72 1023.0
20260507083101 -4 240 0.0 1.6 0.00 0.76 0.00 69 1022.9
20260507081557 -4 243 0.0 3.2 0.00 0.76 0.00 70 1022.9
20260507080051 -4 248 0.0 3.2 0.00 0.76 0.00 72 1023.0
20260507074548 -3 258 0.0 1.6 0.00 0.76 0.00 68 1023.1
20260507073057 -2 80 0.0 4.8 0.00 0.76 0.00 57 1022.8
20260507071543 -2 74 0.0 1.6 0.00 0.76 0.00 60 1022.5
20260507070105 -3 68 0.0 0.0 0.00 0.76 0.00 63 1022.6
20260507064543 -2 68 0.0 3.2 0.00 0.76 0.00 61 1022.4
20260507063038 -2 65 0.0 3.2 0.00 0.76 0.00 64 1022.5
20260507061535 -2 70 0.0 3.2 0.00 0.76 0.00 61 1022.4
20260507060032 -1 44 0.0 4.8 0.00 0.76 0.00 60 1022.4
20260507054529 -2 98 0.0 4.8 0.00 0.76 0.76 62 1022.2
20260507053027 -2 77 0.0 0.0 0.00 0.76 0.76 61 1021.9
20260507051525 -2 65 0.0 0.0 0.00 0.76 0.76 65 1021.7
20260507050031 -2 245 0.0 0.0 0.00 0.76 0.76 64 1021.4
20260507044538 -2 94 0.0 0.0 0.00 0.76 0.76 64 1021.1
20260507043019 -2 243 0.0 0.0 0.00 0.76 0.76 66 1021.0
20260507041517 -2 243 0.0 0.0 0.00 0.76 0.76 67 1020.9
20260507040017 -2 243 0.0 0.0 0.00 0.76 0.76 63 1020.5
20260507034512 -2 243 0.0 0.0 0.00 0.76 0.76 64 1020.0
20260507033010 -1 94 0.0 0.0 0.00 0.76 0.76 63 1019.9
20260507031506 -1 94 0.0 1.6 0.00 0.76 0.76 62 1019.6
20260507030005 0 78 0.0 1.6 0.00 0.76 0.76 60 1019.2
20260507024501 0 101 0.0 1.6 0.00 0.76 0.76 52 1018.8
20260507023059 0 56 0.0 3.2 0.00 0.76 0.76 48 1018.5
20260507021616 0 75 0.0 6.4 0.00 0.76 0.76 52 1018.0
20260507020104 1 61 0.0 4.8 0.00 0.76 0.76 50 1017.6
20260507014611 1 18 0.0 6.4 0.00 0.76 0.76 51 1017.3
20260507013054 1 154 0.0 9.7 0.00 0.76 0.76 53 1017.0
20260507011547 2 231 1.6 8.0 0.00 0.76 0.76 53 1016.6
20260507010054 3 167 3.2 8.0 0.00 0.76 0.76 49 1016.2
20260507004543 4 233 1.6 11.3 0.00 0.76 0.76 49 1015.7
20260507003040 5 238 3.2 12.9 0.00 0.76 0.76 48 1015.4
20260507001537 5 221 3.2 11.3 0.00 0.76 0.76 48 1015.2
20260507000036 4 225 4.8 17.7 0.00 0.76 0.76 47 1014.9
20260506234534 5 229 6.4 17.7 0.00 0.76 0.76 49 1014.8
20260506233033 4 141 8.0 16.1 0.00 0.76 0.76 51 1014.5
20260506231532 4 193 6.4 17.7 0.00 0.76 0.76 50 1014.2
20260506230028 3 162 4.8 19.3 0.00 0.76 0.76 53 1014.0
20260506224528 3 221 4.8 19.3 0.00 0.76 0.76 58 1013.7
20260506223026 3 158 4.8 24.1 0.03 0.76 0.76 56 1013.5
20260506221527 4 153 3.2 16.1 0.05 0.76 0.76 53 1013.3
20260506220030 3 205 4.8 16.1 0.10 0.76 0.76 61 1013.1
20260506214522 3 183 3.2 14.5 0.13 0.76 0.76 60 1013.3
20260506213020 3 194 3.2 16.1 0.20 0.71 0.71 58 1013.0
20260506211518 3 215 6.4 20.9 0.28 0.71 0.71 68 1012.9
20260506210020 2 106 3.2 22.5 0.30 0.66 0.66 71 1012.8
20260506204516 3 161 3.2 12.9 0.43 0.64 0.64 63 1012.2
20260506203013 2 224 3.2 11.3 0.46 0.53 0.53 67 1012.2
20260506201511 2 207 6.4 16.1 0.43 0.43 0.43 72 1012.0
20260506200010 2 140 4.8 14.5 0.33 0.33 0.33 70 1011.4
20260506194608 2 194 1.6 11.3 0.20 0.20 0.20 71 1011.3
20260506193106 3 247 4.8 14.5 0.08 0.08 0.08 61 1010.9
20260506191509 3 196 3.2 9.7 0.00 0.00 0.00 61 1010.7
20260506190002 3 223 1.6 24.1 0.00 0.00 0.00 64 1010.6
20260506184603 2 288 1.6 16.1 0.00 0.00 0.00 65 1010.6
20260506183100 1 222 1.6 9.7 0.00 0.00 0.00 79 1010.4
20260506181557 1 195 1.6 4.8 0.00 0.00 0.00 84 1010.1
20260506180056 2 268 0.0 9.7 0.00 0.00 0.00 82 1009.8
20260506174552 2 177 0.0 3.2 0.00 0.00 0.00 85 1010.2
20260506173107 1 226 0.0 0.0 0.00 0.00 0.00 90 1010.2
20260506171555 0 173 0.0 0.0 0.00 0.00 0.00 92 1010.3
20260506170050 -1 136 0.0 0.0 0.00 0.00 0.00 92 1010.3
20260506164544 0 129 0.0 1.6 0.00 0.00 0.00 91 1010.5
20260506163056 0 269 0.0 0.0 0.00 0.00 0.00 91 1009.5
20260506161543 0 238 0.0 0.0 0.00 0.00 0.00 92 1008.9
20260506160039 0 257 0.0 0.0 0.00 0.00 0.00 92 1008.9
20260506154539 0 139 0.0 0.0 0.00 0.00 0.00 91 1009.0
20260506153040 0 184 0.0 3.2 0.00 0.00 0.00 88 1009.1
20260506151535 0 67 0.0 0.0 0.00 0.00 0.00 88 1008.7
20260506150036 0 229 0.0 0.0 0.00 0.00 0.00 89 1009.0
20260506144537 0 253 0.0 0.0 0.00 0.00 0.00 90 1008.8
20260506143032 0 270 0.0 1.6 0.00 0.00 0.00 88 1008.8
20260506141531 0 126 0.0 1.6 0.00 0.00 0.00 91 1008.7
20260506140038 0 250 0.0 0.0 0.00 0.00 0.00 94 1008.7
20260506134529 0 250 0.0 0.0 0.00 0.00 0.00 94 1008.5
20260506133030 0 250 0.0 0.0 0.00 0.00 0.00 94 1008.5
20260506131533 -1 250 0.0 0.0 0.00 0.00 0.00 94 1008.4
20260506130028 -1 250 0.0 0.0 0.00 0.00 0.00 94 1008.3
20260506124525 -1 250 0.0 0.0 0.00 0.00 0.00 94 1008.1
20260506123024 -1 252 0.0 0.0 0.00 0.00 0.00 94 1007.9
20260506121522 -1 252 0.0 0.0 0.00 0.00 0.00 93 1007.7
20260506120030 0 252 0.0 0.0 0.00 0.00 0.00 93 1007.8
20260506114518 0 252 0.0 0.0 0.00 0.00 0.00 93 1007.7
20260506113019 0 260 0.0 1.6 0.00 0.00 0.00 92 1007.6
20260506111518 0 203 0.0 0.0 0.00 0.00 0.00 92 1007.3
20260506110015 0 131 0.0 1.6 0.00 0.00 0.00 91 1007.1
20260506104513 0 131 0.0 0.0 0.00 0.00 0.00 92 1007.1
20260506103019 0 131 0.0 0.0 0.00 0.00 0.00 92 1007.1
20260506101513 0 222 0.0 0.0 0.00 0.00 0.00 92 1007.0